Tracking 18987 objects as of 25-Feb-2018
HD Live streaming from Space Station
objects crossing your sky now

YAOGAN-30 M

Track YAOGAN-30 M now!
10-day predictions


NORAD ID: 43172
Int'l Code: 2018-011D
Perigee: 604.2 km
Apogee: 609.3 km
Inclination: 35.0 °
Period: 96.7 minutes
Semi major axis: 6977 km
RCS: Unknown
Launch date: January 25, 2018
Source: People's Republic of China (PRC)
Launch site: Xichang Space Center, China (XSC)
aabbcc
Your satellite tracking list
Your tracking list is empty




NASA's NSSDC Master Catalog

Two Line Element Set (TLE):
1 43172U 18011D   18055.97926247 +.00000176 +00000-0 +20895-4 0  9995
2 43172 035.0001 001.1407 0003638 176.9072 183.1654 14.89469757004566
Source of the keplerian elements: AFSPC